This is the latest recevied weather packets stored in our database for station/object NO3U. If no packets are shown the sender has not sent any weather packets the latest 10 day(s).
| Time | Temp. | Humidity | Pressure | Rain* | Wind** | Luminosity | Snow |
|---|---|---|---|---|---|---|---|
| 1777758012 | 6.11° C | 76% | 1016.8 hPa | 0 mm | - | 60 W/m² | - |
| 1777757708 | 6.11° C | 77% | 1016.6 hPa | 0 mm | - | 63 W/m² | - |
| 1777757406 | 6.11° C | 75% | 1016.9 hPa | 0 mm | - | 72 W/m² | - |
| 1777757105 | 6.11° C | 75% | 1016.8 hPa | 0 mm | - | 77 W/m² | - |
| 1777756801 | 6.11° C | 77% | 1016.6 hPa | 0 mm | - | 90 W/m² | - |
| 1777756497 | 6.11° C | 77% | 1016.7 hPa | 0 mm | - | 98 W/m² | - |
| 1777756195 | 6.11° C | 75% | 1016.7 hPa | 0 mm | - | 85 W/m² | - |
| 1777755891 | 6.11° C | 77% | 1016.6 hPa | 0 mm | - | 104 W/m² | - |
| 1777755589 | 6.11° C | 73% | 1016.6 hPa | 0 mm | - | 133 W/m² | - |
| 1777755285 | 6.67° C | 72% | 1016.4 hPa | 0 mm | - | 135 W/m² | - |
| 1777754982 | 6.67° C | 74% | 1016.5 hPa | 0 mm | - | 185 W/m² | - |
| 1777754679 | 6.67° C | 75% | 1016.5 hPa | 0 mm | - | 198 W/m² | - |
| 1777754377 | 6.11° C | 72% | 1016.5 hPa | 0 mm | - | 226 W/m² | - |
| 1777754074 | 6.67° C | 74% | 1016.5 hPa | 0 mm | - | 216 W/m² | - |
| 1777753770 | 6.67° C | 76% | 1016.6 hPa | 0 mm | - | 178 W/m² | - |
| 1777753467 | 6.11° C | 77% | 1016.8 hPa | 0 mm | - | 167 W/m² | - |
| 1777753165 | 6.11° C | 74% | 1016.6 hPa | 0 mm | - | 190 W/m² | - |
| 1777752861 | 6.11° C | 73% | 1016.6 hPa | 0 mm | - | 207 W/m² | - |
| 1777752558 | 6.11° C | 73% | 1016.7 hPa | 0 mm | - | 208 W/m² | - |
| 1777752253 | 6.11° C | 73% | 1016.8 hPa | 0 mm | - | 292 W/m² | - |
| 1777751952 | 5.56° C | 73% | 1016.9 hPa | 0 mm | - | 291 W/m² | - |
| 1777751648 | 5.56° C | 75% | 1016.9 hPa | 0 mm | - | 398 W/m² | - |
| 1777751345 | 5.56° C | 78% | 1016.9 hPa | 0 mm | - | 300 W/m² | - |
| 1777751041 | 5.56° C | 79% | 1017 hPa | 0 mm | - | 181 W/m² | - |
| 1777750737 | 5.56° C | 80% | 1016.8 hPa | 0 mm | - | 194 W/m² | - |
* Rain latest hour (hover to see other rain measurements)
** Current wind speed in m/s (hover to see current wind gust speed)